Location: Songkhla
(7.2000°N, 100.6000°E)
Time: 19:43:50
(UTC+07:00)

ISS - Pass Details

Date: 20 April 2026
Orbit: 414 x 424 km, 51.6° (Epoch: 19 May)

Event Time Altitude Azimuth Distance (km) Brightness Sun altitude
Rises 02:28:55 0° 232° (SW) 2,338 - -52.2°
Reaches altitude 10° 02:31:09 10° 243° (WSW) 1,477 - -51.7°
Maximum altitude 02:34:07 30° 307° (NW) 765 - -51.1°
Drops below altitude 10° 02:37:05 10° 11° (N) 1,479 - -50.4°
Sets 02:39:20 0° 22° (NNE) 2,342 - -49.9°
